Regional Weather Roundup
Issued by NWS

Home | Current Version | Previous Version | Text Only | Print | Product List | Glossary On
Versions: 1 2 3 4 5 6 7 8 9 10 11 12 13 14 15 16 17 18 19 20 21 22 23 24 25 26 27 28 29 30 31 32 33 34 35 36 37 38 39 40 41 42 43 44 45 46 47 48 49 50
000
ASUS42 KKEY 221310
RWRKEY

FLORIDA KEYS REGIONAL WEATHER ROUNDUP
NATIONAL WEATHER SERVICE KEY WEST FLORIDA
900 AM EDT WED MAY 22 2019

...SOUTH FLORIDA AND THE KEYS...

CITY           SKY/WX    TMP DP  RH WIND       PRES   REMARKS
FORT MYERS     FAIR      79  70  74 E6        30.04R
SW REGIONAL AP FAIR      78  71  79 E5        30.04R
NAPLES         FAIR      79  70  74 E8        30.03R
MIAMI          FAIR      83  67  58 NE7       30.04R
WEST KENDALL   FAIR      82  68  62 E7        30.03R
HOMESTEAD      FAIR      82  68  62 E5        30.02R
MARATHON       PTSUNNY   86  72  62 E7        30.00R HX  92
KEY WEST INTL  FAIR      83  72  69 E7        30.01R

...INTERNATIONAL WEATHER...

CITY           SKY/WX    TMP DP  RH WIND       PRES   REMARKS
NASSAU         MOSUNNY   81  68  65 NE7       30.04R
HAVANA           N/A     81  73  78 E8        29.97S
VARADERO       MOSUNNY   81  73  78 SE8       30.00R
CANCUN         MOSUNNY   84  75  74 E10       29.89R HX  92
COZUMEL        MOSUNNY   82  75  78 SE12      29.87R
KINGSTON       PTSUNNY   82  70  65 N9        29.92S
BELIZE CITY    PTSUNNY   82  77  83 SE6       29.82R HX  91

ADJACENT COASTAL WATERS...

STATION/POSITION TIME  SKY/WX   TEMP    WIND        PRES    WAVE
                                AIR SEA DIR/SP/G            HT/PER
                 (UTC)          (F)     (DEG/KT/KT) (MB)    (FT/S)
PULASKI SHOAL LI 1145            81     130/ 12/ 14 1015.6R
SAND KEY         1250            81                 1016.0R
SOMBRERO KEY     1250            81                 1015.5R
LONG KEY         NOT AVBL
MOLASSES REEF    NOT AVBL
FOWEY ROCKS      NOT AVBL
Buoy 42095       1300               82                N/A     3/ 6
Buoy 42097       1300               82                N/A     3/ 5

$$




USA.gov is the U.S. government's official web portal to all federal, state and local government web resources and services.